This demonstration page uses our WeatherBlox Daily Observations layout. Learn more.

Left ArrowRight Arrow

30.21309, -93.2044

Hourly Observations for February 25, 2022

Temp ( °F °C ) Dew Point ( °F °C ) Humidity (%) Winds ( mph kmh ) Pressure ( in mb ) Visibility ( mi km ) Precip ( " mm )
12:15 am 00:15 Cloudy with Nearby Thunderstorms 47 8.3 42 5.4 82 82 N 16 26 30.24 1024 10 16 0.00 0.00
12:35 am 00:35 Cloudy 46 8 42 5.3 83 83 N 16 26 30.24 1024 10 16 0.00 0.00
12:55 am 00:55 Cloudy 46 7.9 42 5.4 84 84 N 13 20 30.25 1024 10 16 0.00 0.00
1:15 am 01:15 Cloudy 46 7.8 42 5.3 84 84 N 15 24 30.25 1024 10 16 0.00 0.00
1:35 am 01:35 Cloudy 46 7.7 41 5.1 84 84 N 13 20 30.25 1024 10 16 0.00 0.00
1:55 am 01:55 Cloudy with Light Rain 45 7.3 41 5.2 87 87 N 12 19 30.25 1024 7 11 0.01 0.25
2:15 am 02:15 Cloudy with Light Rain 45 7.2 42 5.4 88 88 NNE 9 15 30.26 1025 10 16 0.00 0.00
2:35 am 02:35 Cloudy with Rain 45 7 41 5.2 88 88 NNE 10 17 30.26 1025 4 6 0.09 2.29
2:55 am 02:55 Cloudy 44 6.8 41 5.2 90 90 NNE 8 13 30.26 1025 N/A 0.11 2.79
3:15 am 03:15 Cloudy with Light Rain 44 6.4 41 5.2 92 92 NNE 9 15 30.26 1025 4 6 0.01 0.25
3:35 am 03:35 Cloudy with Drizzle 44 6.4 41 5.2 92 92 NNE 10 17 30.27 1025 10 16 0.02 0.51
3:55 am 03:55 Cloudy 43 6.3 41 4.9 91 91 NNE 12 19 30.27 1025 10 16 0.02 0.51
4:15 am 04:15 Cloudy with Drizzle 43 6.2 41 4.9 91 91 NNE 9 15 30.27 1025 10 16 0.00 0.00
4:35 am 04:35 Cloudy 43 6.2 40 4.6 90 90 NNE 12 19 30.27 1025 10 16 0.00 0.00
4:55 am 04:55 Cloudy 43 6.2 40 4.4 88 88 NNE 14 22 30.28 1025 10 16 0.00 0.00
5:15 am 05:15 Cloudy 43 6.1 40 4.2 88 88 NNE 15 24 30.28 1025 10 16 0.00 0.00
5:35 am 05:35 Cloudy with Light Rain 43 6.1 40 4.2 88 88 NNE 13 20 30.30 1026 7 11 0.01 0.25
6:00 am 06:00 Cloudy with Light Rain 43 6 39 4 87 87 NNE 13 20 30.31 1026 6 10 0.00 0.00
6:45 am 06:45 Cloudy with Light Rain 43 6 39 4 87 87 NNE 13 20 30.33 1027 6 10 0.00 0.00
7:45 am 07:45 Cloudy 43 6 39 4 87 87 NNE 9 15 30.36 1028 10 16 0.00 0.00
8:51 am 08:51 Cloudy 43 6 39 4 87 87 NNE 10 17 30.38 1029 10 16 0.00 0.00
9:45 am 09:45 Cloudy 43 6 39 4 87 87 NNE 15 24 30.39 1029 10 16 0.00 0.00
10:53 am 10:53 Mostly Cloudy 45 7 39 4 81 81 NNE 17 28 30.41 1030 10 16 0.00 0.00
11:55 am 11:55 Cloudy 45 7 39 4 81 81 N 14 22 30.38 1029 10 16 0.00 0.00
12:50 pm 12:50 Mostly Cloudy 46 8 39 4 76 76 NNE 16 26 30.37 1028 10 16 0.00 0.00
1:52 pm 13:52 Cloudy 46 8 37 3 71 71 NNE 13 20 30.35 1028 10 16 0.00 0.00
2:50 pm 14:50 Cloudy 46 8 37 3 71 71 N 12 19 30.34 1027 10 16 0.00 0.00
3:50 pm 15:50 Cloudy 46 8 37 3 71 71 NNE 15 24 30.33 1027 10 16 0.00 0.00
4:55 pm 16:55 Cloudy 45 7 37 3 76 76 NNE 14 22 30.34 1027 10 16 0.00 0.00
5:50 pm 17:50 Cloudy 45 7 37 3 76 76 NNE 14 22 30.35 1028 10 16 0.00 0.00
6:55 pm 18:55 Cloudy 45 7 37 3 76 76 NNE 14 22 30.36 1028 10 16 0.00 0.00
7:45 pm 19:45 Cloudy 45 7 37 3 76 76 NNE 14 22 30.35 1028 10 16 0.00 0.00
8:50 pm 20:50 Cloudy 45 7 37 3 76 76 NNE 14 22 30.38 1029 10 16 0.00 0.00
9:45 pm 21:45 Cloudy 43 6 37 3 81 81 NNE 14 22 30.38 1029 10 16 0.00 0.00
10:15 pm 22:15 Cloudy 43 5.9 37 2.7 80 80 NNE 8 13 30.38 1029 10 16 0.00 0.00
10:35 pm 22:35 Cloudy 42 5.6 37 3 84 84 NE 7 11 30.38 1029 10 16 0.00 0.00
10:55 pm 22:55 Cloudy 42 5.3 38 3.2 86 86 NNE 10 17 30.38 1029 7 11 0.00 0.00
11:15 pm 23:15 Cloudy with Mist and Fog 41 5 38 3.3 89 89 NE 9 15 30.38 1029 5 8 0.00 0.00
11:35 pm 23:35 Cloudy with Mist and Fog 41 4.9 38 3.5 91 91 NE 9 15 30.38 1029 5 8 0.00 0.00
11:55 pm 23:55 Cloudy with Mist and Fog 41 4.8 38 3.4 91 91 NE 8 13 30.37 1028 5 8 0.00 0.00

Powered by AerisWeather